Regional Weather Roundup
Issued by NWS

Home | Current Version | Previous Version | Text Only | Print | Product List | Glossary Off
Versions: 1 2 3 4 5 6 7 8 9 10 11 12 13 14 15 16 17 18 19 20 21 22 23 24 25 26 27 28 29 30 31 32 33 34 35 36 37 38 39 40 41 42 43 44 45 46 47 48 49 50

000
ASUS43 KLMK 052102
RWRKY
KENTUCKY REGIONAL WEATHER ROUNDUP
NATIONAL WEATHER SERVICE LOUISVILLE KY
400 PM EST MON DEC 05 2016

NOTE "FAIR" INDICATES FEW OR NO CLOUDS BELOW 12,000 FEET
WITH NO SIGNIFICANT WEATHER AND/OR OBSTRUCTIONS TO VISIBILITY.

KYZ001>023-026-027-061>063-070>075-052200-
WESTERN AND SOUTH CENTRAL KENTUCKY

CITY           SKY/WX    TMP DP  RH WIND       PRES   REMARKS
PADUCAH        CLOUDY    44  35  70 E9        29.94S
HENDERSON      CLOUDY    43  34  70 E6        29.98S
OWENSBORO      CLOUDY    43  35  73 SE8       29.99F
HOPKINSVILLE   CLOUDY    42  38  87 NE7       29.95R
BOWLING GREEN  CLOUDY    45  39  79 NE10      29.97F
GLASGOW        NOT AVBL
$$

KYZ024-025-028>034-038-045-046-053-052200-
NORTH CENTRAL KENTUCKY

CITY           SKY/WX    TMP DP  RH WIND       PRES   REMARKS
LOUISVILLE/SDF CLOUDY    45  33  63 E9        30.01F
LOUISVILLE/LOU CLOUDY    44  34  67 E5        30.02F
FORT KNOX      CLOUDY    42  34  72 E8        29.98S
$$

KYZ035>037-039>044-047>052-055>060-089>105-052200-
NORTHEAST KENTUCKY

CITY           SKY/WX    TMP DP  RH WIND       PRES   REMARKS
LEXINGTON      CLOUDY    45  35  68 E8        30.01F
COVINGTON      CLOUDY    43  33  68 E8        30.02S
FRANKFORT      CLOUDY    44  34  67 E8        30.00F
$$

KYZ054-064>069-076>088-106>120-052200-
SOUTHEAST KENTUCKY

CITY           SKY/WX    TMP DP  RH WIND       PRES   REMARKS
JACKSON        PTSUNNY   47  38  71 CALM      30.01S
LONDON         CLOUDY    48  38  68 NE5       29.98S
SOMERSET       CLOUDY    46  37  71 E5        29.99F
MIDDLESBORO    CLOUDY    51  44  77 CALM      29.97F
MONTICELLO     CLOUDY    48  41  76 N6        29.98F
$$





USA.gov is the U.S. government's official web portal to all federal, state and local government web resources and services.